Weather History for KDUH - September, 2012

Change the Weather History Date:

Friday, September 7, 2012

  Actual Average (KTOL) Record (KTOL)
Temperature  
Mean Temperature 68 °F 68 °F  
Max Temperature 81 °F 79 °F 99 °F (1939)
Min Temperature 56 °F 56 °F 38 °F (1988)
Degree Days  
Heating Degree Days 0 2  
Month to date heating degree days 8  
Since 1 July heating degree days 22  
Cooling Degree Days 4 4  
Month to date cooling degree days 32  
Year to date cooling degree days 734  
Growing Degree Days 18 (Base 50)    
Moisture  
Dew Point 60 °F    
Average Humidity 75    
Maximum Humidity 93    
Minimum Humidity 44    
Precipitation  
Precipitation 0.00 in 0.10 in 0.69 in (2004)
Month to date precipitation 0.67  
Year to date precipitation 23.99  
Snow  
Snow 0.00 in 0.00 in - ()
Month to date snowfall 0.0  
Since 1 July snowfall 0.0  
Since 1 September snowfall 0.0  
Snow Depth -    
Sea Level Pressure  
Sea Level Pressure 29.85 in    
Wind  
Wind Speed 1 mph (SW)    
Max Wind Speed 10 mph    
Max Gust Speed 20 mph    
Visibility 9 miles    
Events Rain    
T = Trace of Precipitation, MM = Missing Value Source: NWS Daily Summary

Daily Weather History Graph

Daily Weather History Graph

Search for Another Location

Airport or City:

Trip Planner

Search our weather history database for the weather conditions in past years. The results will help you decide how hot, cold, wet, or windy it might be!

Date:

Astronomy

Sep. 07, 2012 Rise Set
Actual Time 7:07 AM EDT 7:56 PM EDT
Civil Twilight 6:38 AM EDT 8:25 PM EDT
Nautical Twilight 6:05 AM EDT 8:58 PM EDT
Astronomical Twilight 5:30 AM EDT 9:33 PM EDT
Moon 11:45 PM EDT (9/7) 2:04 PM EDT (9/7)
Length of Visible Light 13h 46m
Length of Day
12h 49m
Waning Gibbous, 58% of the Moon is Illuminated
Sep 7
Waning Gibbous
Sep 8
Last Quarter
Sep 15
New
Sep 22
First Quarter
Sep 29
Full

Hourly Weather History & Observations

Time (EDT) Temp. Heat Index Dew Point Humidity Pressure Visibility Wind Dir Wind Speed Gust Speed Precip Events Conditions
12:15 AM 65.3 °F - 58.6 °F 79% 29.93 in 10.0 mi Calm Calm - N/A   Clear
12:35 AM 65.5 °F - 58.3 °F 77% 29.93 in 10.0 mi Calm Calm - N/A   Clear
12:55 AM 62.6 °F - 58.1 °F 85% 29.92 in 10.0 mi Calm Calm - N/A   Clear
1:15 AM 61.7 °F - 58.1 °F 88% 29.92 in 10.0 mi Calm Calm - N/A   Clear
1:35 AM 61.9 °F - 58.1 °F 87% 29.92 in 10.0 mi Calm Calm - N/A   Clear
1:55 AM 61.0 °F - 57.6 °F 88% 29.91 in 10.0 mi Calm Calm - N/A   Clear
2:15 AM 60.3 °F - 56.8 °F 88% 29.91 in 10.0 mi Calm Calm - N/A   Clear
2:35 AM 60.1 °F - 57.2 °F 90% 29.92 in 10.0 mi Calm Calm - N/A   Clear
2:55 AM 59.9 °F - 57.2 °F 91% 29.92 in 10.0 mi Calm Calm - N/A   Clear
3:15 AM 59.4 °F - 56.7 °F 91% 29.91 in 10.0 mi Calm Calm - N/A   Clear
3:35 AM 58.1 °F - 55.4 °F 91% 29.92 in 10.0 mi Calm Calm - N/A   Clear
3:55 AM 59.0 °F - 56.3 °F 91% 29.91 in 10.0 mi Calm Calm - N/A   Clear
4:15 AM 58.8 °F - 56.3 °F 91% 29.90 in 10.0 mi Calm Calm - N/A   Clear
4:35 AM 58.1 °F - 55.6 °F 91% 29.92 in 5.0 mi Calm Calm - N/A   Clear
4:55 AM 58.3 °F - 55.9 °F 92% 29.91 in 7.0 mi Calm Calm - N/A   Clear
5:15 AM 58.3 °F - 56.1 °F 93% 29.91 in 10.0 mi Calm Calm - N/A   Clear
5:35 AM 58.3 °F - 55.4 °F 90% 29.90 in 10.0 mi Calm Calm - N/A   Clear
5:55 AM 57.7 °F - 55.0 °F 91% 29.90 in 7.0 mi Calm Calm - N/A   Clear
6:15 AM 56.3 °F - 54.0 °F 92% 29.90 in 7.0 mi Calm Calm - N/A   Clear
6:35 AM 56.8 °F - 54.5 °F 92% 29.90 in 5.0 mi Calm Calm - N/A   Clear
6:55 AM 56.8 °F - 54.5 °F 92% 29.91 in 7.0 mi Calm Calm - N/A   Clear
7:15 AM 57.6 °F - 55.0 °F 91% 29.89 in 5.0 mi Calm Calm - N/A   Clear
7:35 AM 57.7 °F - 55.4 °F 92% 29.90 in 5.0 mi Calm Calm - N/A   Clear
7:55 AM 58.3 °F - 55.9 °F 92% 29.90 in 5.0 mi Calm Calm - N/A   Clear
8:15 AM 59.5 °F - 57.2 °F 92% 29.90 in 5.0 mi Calm Calm - N/A   Clear
8:35 AM 62.8 °F - 59.9 °F 90% 29.92 in 10.0 mi Calm Calm - N/A   Clear
8:55 AM 64.4 °F - 60.1 °F 86% 29.92 in 10.0 mi Calm Calm - N/A   Clear
9:15 AM 66.2 °F - 60.4 °F 82% 29.92 in 10.0 mi Calm Calm - N/A   Clear
9:35 AM 67.1 °F - 60.8 °F 80% 29.92 in 10.0 mi Calm Calm - N/A   Clear
9:55 AM 69.1 °F - 60.8 °F 75% 29.92 in 10.0 mi Calm Calm - N/A   Clear
10:15 AM 70.0 °F - 61.9 °F 75% 29.92 in 10.0 mi Calm Calm - N/A   Scattered Clouds
10:35 AM 71.6 °F - 62.1 °F 72% 29.93 in 10.0 mi Calm Calm - N/A   Clear
10:55 AM 73.6 °F - 61.5 °F 66% 29.93 in 10.0 mi West 4.6 mph - N/A   Scattered Clouds
11:15 AM 74.5 °F - 60.6 °F 62% 29.93 in 10.0 mi West 3.5 mph - N/A   Scattered Clouds
11:35 AM 75.4 °F - 59.4 °F 57% 29.92 in 10.0 mi Calm Calm - N/A   Clear
11:55 AM 75.7 °F - 59.5 °F 57% 29.91 in 10.0 mi WSW 3.5 mph - N/A   Clear
12:15 PM 77.0 °F - 59.5 °F 55% 29.90 in 10.0 mi Calm Calm - N/A   Clear
12:35 PM 76.8 °F - 60.4 °F 57% 29.90 in 10.0 mi WSW 3.5 mph - N/A   Clear
12:55 PM 77.2 °F - 59.7 °F 55% 29.91 in 10.0 mi Calm Calm - N/A   Clear
1:15 PM 76.5 °F - 60.3 °F 57% 29.89 in 10.0 mi Calm Calm - N/A   Clear
1:35 PM 76.3 °F - 61.0 °F 59% 29.87 in 10.0 mi Calm Calm - N/A   Clear
1:55 PM 75.7 °F - 61.2 °F 60% 29.87 in 10.0 mi Calm Calm - N/A   Clear
2:15 PM 75.6 °F - 63.1 °F 65% 29.86 in 10.0 mi Calm Calm - N/A   Scattered Clouds
2:35 PM 75.2 °F - 64.2 °F 69% 29.86 in 10.0 mi Calm Calm - N/A   Scattered Clouds
2:55 PM 75.4 °F - 64.4 °F 69% 29.85 in 10.0 mi Calm Calm - N/A   Mostly Cloudy
3:15 PM 76.6 °F - 64.4 °F 66% 29.83 in 10.0 mi ESE 3.5 mph - N/A   Scattered Clouds
3:40 PM 79.7 °F - 67.1 °F 65% 29.82 in 10.0 mi SSW 10.4 mph 16.1 mph N/A   Scattered Clouds
4:00 PM 77.9 °F - 64.4 °F 63% 29.82 in 10.0 mi SW 8.1 mph 19.6 mph N/A   Clear
4:15 PM 79.7 °F - 63.9 °F 58% 29.79 in 10.0 mi SSW 5.8 mph - N/A   Clear
4:35 PM 81.3 °F 82.1 °F 61.0 °F 50% 29.79 in 10.0 mi South 3.5 mph - N/A   Clear
4:55 PM 81.9 °F 81.8 °F 57.9 °F 44% 29.78 in 10.0 mi SW 8.1 mph - N/A   Clear
5:15 PM 81.7 °F 81.8 °F 58.3 °F 45% 29.78 in 10.0 mi SSW 8.1 mph - N/A   Clear
5:55 PM 79.7 °F - 58.6 °F 48% 29.76 in 10.0 mi SW 8.1 mph - N/A   Clear
6:15 PM 78.6 °F - 59.5 °F 52% 29.75 in 10.0 mi SSW 4.6 mph - N/A   Scattered Clouds
6:35 PM 77.7 °F - 60.1 °F 54% 29.74 in 10.0 mi South 4.6 mph - N/A   Scattered Clouds
6:55 PM 77.0 °F - 59.9 °F 55% 29.74 in 10.0 mi SSW 4.6 mph - N/A   Clear
7:15 PM 76.3 °F - 60.3 °F 57% 29.73 in 10.0 mi South 4.6 mph - N/A   Clear
7:35 PM 76.1 °F - 59.7 °F 57% 29.72 in 10.0 mi South 4.6 mph - N/A   Clear
7:55 PM 76.1 °F - 60.1 °F 57% 29.72 in 10.0 mi SW 3.5 mph - N/A   Scattered Clouds
8:15 PM 73.6 °F - 61.5 °F 66% 29.73 in 10.0 mi SSW 3.5 mph - N/A   Scattered Clouds
8:35 PM 74.3 °F - 61.2 °F 63% 29.74 in 10.0 mi Calm Calm - N/A   Scattered Clouds
8:55 PM 71.1 °F - 64.2 °F 79% 29.73 in 10.0 mi Calm Calm - N/A Rain Light Rain
9:15 PM 69.4 °F - 64.8 °F 85% 29.72 in 10.0 mi Calm Calm - N/A Rain Light Rain
9:35 PM 69.8 °F - 64.9 °F 84% 29.73 in 10.0 mi WSW 3.5 mph - N/A Rain Light Rain
9:55 PM 71.6 °F - 64.0 °F 77% 29.74 in 10.0 mi WSW 8.1 mph - N/A Rain Light Rain
10:15 PM 71.2 °F - 64.2 °F 78% 29.75 in 10.0 mi WSW 6.9 mph - N/A   Light Drizzle
10:35 PM 70.7 °F - 64.6 °F 81% 29.74 in 10.0 mi WSW 5.8 mph - N/A Rain Light Rain
10:55 PM 69.8 °F - 64.8 °F 84% 29.73 in 10.0 mi WSW 5.8 mph - N/A Rain Light Rain
11:15 PM 69.3 °F - 65.1 °F 87% 29.73 in 10.0 mi West 4.6 mph - N/A Rain Rain
11:35 PM 68.9 °F - 64.8 °F 87% 29.73 in 10.0 mi West 6.9 mph - N/A Rain Rain
11:55 PM 68.5 °F - 64.9 °F 88% 29.73 in 7.0 mi West 9.2 mph - N/A Rain Light Rain